| time (UTC) | temp F | wind direction | speed MPH | gust MPH | rain 1hr in | rain 24hr in | rain mn in | humidity % | barometer mb |
| 20260504050304 | 44 | 110 | 0.0 | 0.0 | 0.00 | 0.00 | 0.00 | 93 | 1017.0 |
| 20260504045804 | 44 | 110 | 0.0 | 0.0 | 0.00 | 0.00 | 0.00 | 92 | 1017.0 |
| 20260504044801 | 44 | 110 | 0.0 | 0.0 | 0.00 | 0.00 | 0.00 | 91 | 1017.0 |
| 20260504043256 | 45 | 110 | 0.0 | 0.0 | 0.00 | 0.00 | 0.00 | 89 | 1017.0 |
| 20260504024724 | 49 | 189 | 0.0 | 0.0 | 0.00 | 0.00 | 0.00 | 79 | 1017.0 |
| 20260504020710 | 52 | 189 | 0.0 | 0.0 | 0.00 | 0.00 | 0.00 | 73 | 1018.0 |
| 20260504015708 | 53 | 189 | 0.0 | 0.0 | 0.00 | 0.00 | 0.00 | 71 | 1018.0 |
| 20260504011152 | 59 | 189 | 0.0 | 0.0 | 0.00 | 0.00 | 0.00 | 58 | 1018.0 |
| 20260504010650 | 59 | 191 | 0.0 | 0.0 | 0.00 | 0.00 | 0.00 | 57 | 1018.0 |
| 20260504010147 | 60 | 191 | 0.0 | 0.0 | 0.00 | 0.00 | 0.00 | 55 | 1018.0 |
| 20260504002128 | 71 | 264 | 0.0 | 0.0 | 0.00 | 0.00 | 0.00 | 41 | 1018.0 |
| 20260504000121 | 75 | 287 | 0.0 | 0.0 | 0.00 | 0.00 | 0.00 | 34 | 1018.0 |
| 20260503234113 | 77 | 290 | 4.0 | 9.0 | 0.00 | 0.00 | 0.00 | 32 | 1018.0 |
| 20260503221601 | 76 | 288 | 6.0 | 7.0 | 0.00 | 0.00 | 0.00 | 32 | 1019.0 |
| 20260503221524 | 76 | 288 | 6.0 | 7.0 | 0.00 | 0.00 | 0.00 | 32 | 1019.0 |
| 20260503204433 | 72 | 338 | 5.0 | 7.0 | 0.00 | 0.00 | 0.00 | 33 | 1020.0 |
| 20260503194400 | 72 | 276 | 8.0 | 12.0 | 0.00 | 0.00 | 0.00 | 34 | 1020.0 |
| 20260503193354 | 72 | 17 | 7.0 | 10.0 | 0.00 | 0.00 | 0.00 | 35 | 1020.0 |
| 20260503192350 | 71 | 167 | 4.0 | 7.0 | 0.00 | 0.00 | 0.00 | 37 | 1021.0 |
| 20260503190840 | 71 | 289 | 7.0 | 10.0 | 0.00 | 0.00 | 0.00 | 35 | 1021.0 |
| 20260503190337 | 70 | 351 | 0.0 | 6.0 | 0.00 | 0.00 | 0.00 | 35 | 1021.0 |
| 20260503185335 | 71 | 351 | 5.0 | 9.0 | 0.00 | 0.00 | 0.00 | 36 | 1021.0 |
| 20260503183320 | 70 | 332 | 6.0 | 11.0 | 0.00 | 0.00 | 0.00 | 35 | 1021.0 |
| 20260503182312 | 69 | 306 | 4.0 | 7.0 | 0.00 | 0.00 | 0.00 | 37 | 1021.0 |
| 20260503181307 | 69 | 289 | 6.0 | 8.0 | 0.00 | 0.00 | 0.00 | 36 | 1021.0 |
| 20260503180805 | 69 | 323 | 3.0 | 11.0 | 0.00 | 0.00 | 0.00 | 37 | 1021.0 |
| 20260503172749 | 69 | 254 | 7.0 | 7.0 | 0.00 | 0.00 | 0.00 | 42 | 1022.0 |